K0VXP-1 Weather Reports


Display with metric or nautical units.
time (UTC)temp
F
wind
direction
speed
MPH
gust
MPH
rain 1hr
in
rain 24hr
in
rain mn
in
humidity
%
barometer
mb
20260904221546 82 202 9.0 22.0 0.00 0.00 0.00 28 1024.2
20260904220045 81 149 10.0 21.0 0.00 0.00 0.00 30 1024.3
20260904214540 82 223 12.0 22.0 0.00 0.00 0.00 29 1024.4
20260904213037 81 212 12.0 20.0 0.00 0.00 0.00 29 1024.6
20260904211550 82 180 14.0 23.0 0.00 0.00 0.00 27 1024.9
20260904210045 82 184 14.0 22.0 0.00 0.00 0.00 29 1025.0
20260904204537 81 219 12.0 23.0 0.00 0.00 0.00 29 1025.1
20260904203035 80 178 13.0 24.0 0.00 0.00 0.00 30 1025.1
20260904201538 80 180 14.0 28.0 0.00 0.00 0.00 30 1025.3
20260904200045 80 150 17.0 26.0 0.00 0.00 0.00 31 1025.4
20260904194621 79 14.0 22.0 0.00 0.00 0.00 32 1025.5
20260904193042 78 180 17.0 27.0 0.00 0.00 0.00 32 1025.6
20260904191534 0 0.0 0.0 0.00 0.00 0.00 1025.8
20260904190046 0 0.0 0.0 0.00 0.00 0.00 1025.8
20260904184534 0 0.0 0.0 0.00 0.00 0.00 1025.8
20260904183036 0 0.0 0.0 0.00 0.00 0.00 1025.9
20260904181542 78 16.0 27.0 0.00 0.00 0.00 34 1026.1
20260904180039 0 0.0 0.0 0.00 0.00 0.00 1026.5
20260904174538 0 0.0 0.0 0.00 0.00 0.00 1026.7
20260904173053 0 0.0 0.0 0.00 0.00 0.00 1027.0
20260904171541 0 0.0 0.0 0.00 0.00 0.00 1026.8
20260904170035 0 0.0 0.0 0.00 0.00 0.00 1026.9
20260904164537 0 0.0 0.0 0.00 0.00 0.00 1026.8
20260904163034 0 0.0 0.0 0.00 0.00 0.00 1026.9
20260904161544 0 0.0 0.0 0.00 0.00 0.00 1026.9
20260904160037 0 0.0 0.0 0.00 0.00 0.00 1026.9
20260904154537 0 0.0 0.0 0.00 0.00 0.00 1026.7
20260904153038 0 0.0 0.0 0.00 0.00 0.00 1026.5
20260904151544 64 1.0 2.0 0.00 0.00 0.00 44 1026.5
20260904150038 64 218 1.0 4.0 0.00 0.00 0.00 45 1026.3
20260904144535 62 227 1.0 4.0 0.00 0.00 0.00 46 1026.4
20260904143035 62 151 1.0 3.0 0.00 0.00 0.00 47 1026.2
20260904141553 60 151 1.0 2.0 0.00 0.00 0.00 48 1026.2
20260904140049 58 151 1.0 3.0 0.00 0.00 0.00 49 1026.2
20260904134534 56 151 2.0 4.0 0.00 0.00 0.00 51 1025.9
20260904133039 54 0 0.0 0.0 0.00 0.00 0.00 53 1025.8
20260904131535 52 0 0.0 1.0 0.00 0.00 0.00 55 1025.6
20260904130036 51 59 1.0 3.0 0.00 0.00 0.00 56 1025.2
20260904124536 51 80 3.0 4.0 0.00 0.00 0.00 55 1025.0
20260904123036 51 56 2.0 4.0 0.00 0.00 0.00 54 1024.8
20260904121538 51 0 0.0 3.0 0.00 0.00 0.00 54 1024.7
20260904120042 52 0 0.0 2.0 0.00 0.00 0.00 53 1024.4
20260904114534 51 59 1.0 4.0 0.00 0.00 0.00 55 1024.5
20260904113037 50 63 2.0 5.0 0.00 0.00 0.00 56 1024.4
20260904111537 50 35 3.0 5.0 0.00 0.00 0.00 57 1024.5
20260904110037 49 28 4.0 9.0 0.00 0.00 0.00 58 1024.3
20260904104536 49 46 5.0 7.0 0.00 0.00 0.00 59 1024.2
20260904103040 49 47 3.0 7.0 0.00 0.00 0.00 59 1024.2
20260904101536 49 40 4.0 6.0 0.00 0.00 0.00 58 1024.0
20260904100033 50 31 2.0 4.0 0.00 0.00 0.00 56 1024.1
20260904094536 51 10 3.0 5.0 0.00 0.00 0.00 55 1023.9
20260904093033 51 5 2.0 6.0 0.00 0.00 0.00 54 1023.8
20260904091540 52 60 4.0 6.0 0.00 0.00 0.00 55 1023.6
20260904090044 53 119 0.0 2.0 0.00 0.00 0.00 50 1023.8
20260904084536 54 119 0.0 3.0 0.00 0.00 0.00 50 1024.0
20260904083038 53 32 2.0 4.0 0.00 0.00 0.00 51 1023.9
20260904081544 53 73 1.0 4.0 0.00 0.00 0.00 52 1024.1
20260904080046 53 83 3.0 4.0 0.00 0.00 0.00 52 1024.1
20260904074533 53 86 2.0 5.0 0.00 0.00 0.00 52 1024.3
20260904073046 53 64 3.0 6.0 0.00 0.00 0.00 52 1024.3
20260904071534 54 63 4.0 9.0 0.00 0.00 0.00 50 1024.2
20260904070038 55 57 5.0 9.0 0.00 0.00 0.00 49 1024.2
20260904064537 55 65 4.0 8.0 0.00 0.00 0.00 47 1024.3
20260904063034 57 70 3.0 6.0 0.00 0.00 0.00 44 1024.3
20260904061538 58 98 4.0 7.0 0.00 0.00 0.00 42 1024.1
20260904060036 60 188 1.0 4.0 0.00 0.00 0.00 39 1024.1
20260904054536 61 137 1.0 5.0 0.00 0.00 0.00 39 1024.4
20260904053036 62 167 2.0 4.0 0.00 0.00 0.00 37 1024.3
20260904051537 61 165 1.0 5.0 0.00 0.00 0.00 38 1024.3
20260904050040 61 180 2.0 4.0 0.00 0.00 0.00 37 1024.3
20260904044545 61 205 2.0 4.0 0.00 0.00 0.00 38 1024.4
20260904043042 61 0 0.0 3.0 0.00 0.00 0.00 37 1024.4
20260904041539 63 0 1.0 2.0 0.00 0.00 0.00 35 1024.5
20260904040035 64 128 3.0 6.0 0.00 0.00 0.00 34 1024.3
20260904034533 65 196 3.0 8.0 0.00 0.00 0.00 33 1024.3
20260904033037 63 160 2.0 6.0 0.00 0.00 0.00 36 1024.2
20260904031541 63 172 0.0 3.0 0.00 0.00 0.00 37 1023.9
20260904030034 63 136 1.0 3.0 0.00 0.00 0.00 38 1023.8
20260904024539 64 0 0.0 6.0 0.00 0.00 0.00 37 1023.6
20260904023036 65 215 7.0 11.0 0.00 0.00 0.00 36 1022.9
20260904021534 66 234 7.0 11.0 0.00 0.00 0.00 35 1022.8
20260904020044 66 219 6.0 10.0 0.00 0.00 0.00 35 1022.6
20260904014538 69 213 6.0 10.0 0.00 0.00 0.00 33 1022.5
20260904013037 72 222 9.0 13.0 0.00 0.00 0.00 30 1022.4
20260904011535 74 236 10.0 16.0 0.00 0.00 0.00 29 1022.5
20260904010039 76 208 10.0 17.0 0.00 0.00 0.00 27 1022.5
20260904004537 76 219 11.0 19.0 0.00 0.00 0.00 26 1022.5
20260904003036 78 216 11.0 16.0 0.00 0.00 0.00 25 1022.7
20260904001533 78 237 12.0 18.0 0.00 0.00 0.00 24 1022.6
20260904000034 79 224 11.0 16.0 0.00 0.00 0.00 24 1022.7
20260903234537 79 180 9.0 19.0 0.00 0.00 0.00 24 1022.8
20260903233037 79 223 11.0 18.0 0.00 0.00 0.00 23 1022.8
20260903231541 79 218 11.0 18.0 0.00 0.00 0.00 24 1022.9
20260903230038 79 214 16.0 31.0 0.00 0.00 0.00 23 1022.9
20260903224536 79 198 14.0 22.0 0.00 0.00 0.00 23 1023.0
20260903223042 79 217 15.0 24.0 0.00 0.00 0.00 22 1022.9